Weather in Khanpur

Pakistan     28°24′53″N   70°17′51″E
temp.,
°C
wind,
m/s
gust,
m/s
humid.,
%
clouds,
%
prec.,
mm/h
press.,
hPa
HPBL,
m
6 march, sat
sat623:00+21sse12320 0.0 101024
02:00+21s34170 0.0 100923
05:00+21s34180 0.0 100828
08:00+25sw34150 0.0 1010118
11:00+36ssw57100 0.0 10101166
14:00+41wsw81180 0.0 10054880
17:00+39w71181 0.0 10024885
20:00+32ssw461333 0.0 100385
7 march, sun
sun723:00+25nne252124 0.0 1005119
02:00+21nne232429 0.0 100435
05:00+20ne452424 0.0 100476
08:00+22ne59262 0.0 1007342
11:00+32ne56146 0.0 1008929
14:00+36n1390 0.0 10052498
17:00+36wnw4590 0.0 10033389
20:00+22w01240 0.0 100424
8 march, mon
mon823:00+24nne34180 0.0 100524
02:00+21nne34170 0.0 100647
05:00+19nne69220 0.0 1006127
08:00+22nne610200 0.0 1010277
11:00+32nne8980 0.0 10101310
14:00+36ne5480 0.0 10082347
17:00+35ene3290 0.0 10063337
20:00+25nne34170 0.0 100827
9 march, tue
tue923:00+21nne48130 0.0 1009113
02:00+20ne48160 0.0 1009115
05:00+18ne45210 0.0 101090
08:00+21ene23210 0.0 1012144
11:00+32ene56100 0.0 1012824
14:00+36ese4370 0.0 10092584
17:00+36se3460 0.0 10063773
20:00+27e34110 0.0 100724
10 march, wed
wed1023:00+24se34150 0.0 100825
02:00+23ssw58130 0.0 1007104
05:00+18sw23190 0.0 100724
08:00+23sw34150 0.0 1009116
11:00+33sw4490 0.0 1009846
14:00+37ssw4450 0.0 10052476
17:00+36ssw5550 0.0 10032467
20:00+27s46100 0.0 100452